Location: Tel Aviv
(32.0670°N, 34.7670°E)
Time: 03:42:09
(UTC+03:00)

Tiros 1 - Pass Details

Date: 24 January 2022
Orbit: 629 x 663 km, 48.4° (Epoch: 26 May)

Event Time Altitude Azimuth Distance (km) Brightness Sun altitude
Rises 00:18:02 0° 283° (WNW) 2,990 - -76.0°
Reaches altitude 10° 00:21:20 10° 306° (NW) 2,076 - -75.7°
Maximum altitude 00:24:08 15° 342° (NNW) 1,744 - -75.4°
Drops below altitude 10° 00:26:57 10° 19° (NNE) 2,070 - -75.1°
Sets 00:30:14 0° 42° (NE) 2,977 - -74.7°
